Satellite: CASTOR
Catalog number: 35694
Epoch time:      10230.44082147
Element set:     655
Inclination:      051.5930 deg
RA of node:       222.0149 deg
Eccentricity:    0.0004218
Arg of perigee:   308.0851 deg
Mean anomaly:     053.0105 deg
Mean motion:   16.48877011 rev/day
Decay rate:   7.179566e-02 rev/day^2
Epoch rev:            6110
Checksum:              273

Satellite: METEOR-M
Catalog number: 35865
Epoch time:      10294.73282788
Element set:     761
Inclination:      098.7430 deg
RA of node:       347.5275 deg
Eccentricity:    0.0003298
Arg of perigee:   013.3967 deg
Mean anomaly:     346.7261 deg
Mean motion:   14.21832180 rev/day
Decay rate:       1.76e-06 rev/day^2
Epoch rev:            5670
Checksum:              318

Satellite: RS-38
Catalog number: 35869
Epoch time:      10294.76081492
Element set:     775
Inclination:      098.7427 deg
RA of node:       347.5951 deg
Eccentricity:    0.0005400
Arg of perigee:   007.4678 deg
Mean anomaly:     352.6542 deg
Mean motion:   14.21991152 rev/day
Decay rate:       1.77e-06 rev/day^2
Epoch rev:            5671
Checksum:              332

/EX


_______________________________________________
Via the Keps mailing list courtesy of AMSAT-NA
http://amsat.org/mailman/listinfo/keps

--- ViaMAIL!/WC v1.60d
 * Origin: Chowdanet (401-724-4410) telnet://chowdanet.com  (1:323/120)